Flag for Germany Weather past 2 weeks in Garmisch-Partenkirchen, Bavaria, Germany

Now
48 °F

Light rain. More clouds than sun.


Feels Like: 46 °F
Forecast: 38 / 52 °F
Wind: 5 mph from North

Location: Innsbruck-Flughafen

Current Time: Mar 30, 2015 at 3:26:24 PM

Latest Report: Mar 30, 2015 at 2:50 PM


Visibility: N/A

Pressure: 29.65 "Hg

Humidity: 87%

Dew point: 45 °F

Location of Garmisch-PartenkirchenLocation

Historic Weather in Garmisch-Partenkirchen — Graph

°F

Garmisch-Partenkirchen temperature yesterday

Maximum temperature yesterday: 61 °F (at 5:20 PM)
Minimum temperature yesterday: 39 °F (at 6:20 AM)
Average temperature yesterday: 51 °F

Past Weeks' High & Low Weather Summary

 TemperatureHumidityPressure
High66 °F (Mar 18, 2:20 PM)100% (Mar 22, 3:50 AM)30.30 "Hg (Mar 22, 3:50 AM)
Low32 °F (Mar 18, 5:50 AM)28% (Mar 18, 2:20 PM)29.50 "Hg (Mar 25, 3:50 PM)
Average47 °F67%30.00 "Hg
* Reported Mar 15 12:20 PM — Mar 30 1:50 PM, Garmisch-Partenkirchen, Weather by CustomWeather, © 2015

Note: Actual official high and low records may vary slightly from our data, if they occured in-between our weather recording intervals... More about our weather records

Advertising

Garmisch-Partenkirchen weather history for previous 24 hours

 ConditionsComfort  
Time TempWeatherWind HumidityBarometerVisibility
1:50 PM
Mon, Mar 30
50 °FLight rain. Broken clouds.13 mph82%29.65 "HgN/A
1:20 PM50 °FLight rain. Broken clouds.3 mph82%29.62 "HgN/A
12:50 PM50 °FLight rain. Broken clouds.6 mph82%29.62 "HgN/A
12:20 PM50 °FRain. Partly sunny.5 mph88%29.62 "HgN/A
11:50 AM48 °FRain. Partly sunny.9 mph94%29.62 "HgN/A
11:20 AM50 °FRain. Partly sunny.15 mph82%29.59 "HgN/A
10:50 AM50 °FLight rain. Partly sunny.14 mph88%29.59 "HgN/A
10:20 AM50 °FLight rain. More clouds than sun.12 mph88%29.59 "HgN/A
9:50 AM48 °FBroken clouds.8 mph87%29.59 "HgN/A
9:20 AM46 °FLight rain. Broken clouds.9 mph93%29.59 "HgN/A
8:50 AM46 °FLight rain. Partly sunny.9 mph93%29.59 "HgN/A
8:20 AM46 °FLight rain. Partly sunny.9 mph93%29.62 "HgN/A
7:50 AM46 °FLight rain. Low clouds.8 mph93%29.62 "HgN/A
7:20 AM46 °FLight rain. Low clouds.9 mph93%29.59 "HgN/A
6:50 AM46 °FLight rain. Passing clouds.10 mph93%29.59 "HgN/A
6:20 AM46 °FLight rain. Passing clouds.9 mph93%29.59 "HgN/A
5:50 AM46 °FLight rain. Passing clouds.13 mph93%29.59 "HgN/A
5:20 AM46 °FLight rain. Passing clouds.9 mph93%29.59 "HgN/A
4:50 AM46 °FLight rain. Passing clouds.8 mph93%29.59 "HgN/A
4:20 AM46 °FLight rain. Passing clouds.9 mph93%29.62 "HgN/A
3:50 AM48 °FLight rain. Passing clouds.8 mph87%29.62 "HgN/A
3:20 AM48 °FLight rain. Passing clouds.10 mph87%29.62 "HgN/A
2:50 AM48 °FLight rain. Passing clouds.12 mph87%29.62 "HgN/A
2:20 AM50 °FLight rain. Passing clouds.14 mph76%29.65 "HgN/A
1:50 AM52 °FPassing clouds.12 mph72%29.65 "HgN/A
1:20 AM52 °FPassing clouds.13 mph72%29.65 "HgN/A
12:50 AM52 °FPassing clouds.15 mph67%29.65 "HgN/A
12:20 AM52 °FPassing clouds.14 mph67%29.65 "HgN/A
11:50 PM
Sun, Mar 29
54 °FPassing clouds.12 mph63%29.65 "HgN/A
10:50 PM54 °FPartly cloudy.10 mph63%29.68 "HgN/A
10:20 PM54 °FPartly cloudy.8 mph63%29.68 "HgN/A
9:50 PM54 °FPartly cloudy.8 mph63%29.68 "HgN/A
9:20 PM55 °FPartly cloudy.7 mph59%29.71 "HgN/A
8:50 PM54 °FPartly cloudy.5 mph63%29.71 "HgN/A
8:20 PM55 °FBroken clouds.8 mph59%29.71 "HgN/A
7:50 PM55 °FBroken clouds.9 mph59%29.74 "HgN/A
7:20 PM55 °FSprinkles. Broken clouds.13 mph59%29.74 "HgN/A
6:50 PM57 °FBroken clouds.13 mph51%29.71 "HgN/A
6:20 PM59 °FBroken clouds.17 mph48%29.71 "HgN/A
5:50 PM61 °FPartly sunny.15 mph45%29.71 "HgN/A
5:20 PM61 °FPartly sunny.3 mph48%29.68 "HgN/A
4:50 PM59 °FPartly sunny.5 mph45%29.68 "HgN/A
4:20 PM59 °FPartly sunny.5 mph55%29.68 "HgN/A
3:50 PM59 °FPartly sunny.2 mph51%29.71 "HgN/A
3:20 PM59 °FPartly sunny.2 mph51%29.71 "HgN/A
Weather by CustomWeather, © 2015

See weather overviewHow to use our weather pages